South Bend International Airport (SBN)


Airport Diagram
Current Weather/Forecast (MVFR Conditions)
METAR KSBN 201454Z 24007KT 4SM -SN OVC021 M06/M10 A3024 RMK AO2 SLP253 P0000 60000 T10611100 51012
TAF KSBN 201120Z 2012/2112 28010KT P6SM BKN018 FM201500 23011KT P6SM SCT250 FM202300 21017G26KT P6SM FEW250 WS020/24050KT

All Charts
General
Chart Name Download
AIRPORT DIAGRAM
TAKEOFF MINIMUMS
ALTERNATE MINIMUMS

Approaches
Chart Name Download
ILS OR LOC RWY 09R
ILS OR LOC RWY 27L
ILS RWY 27L (SA CAT I - II)
RNAV (GPS) RWY 09L
RNAV (GPS) RWY 09R
RNAV (GPS) RWY 18
RNAV (GPS) RWY 27L
RNAV (GPS) RWY 27R
RNAV (GPS) RWY 36
VOR RWY 18